| time (UTC) | temp F | wind direction | speed MPH | gust MPH | rain 1hr in | rain 24hr in | rain mn in | humidity % | barometer mb |
| 20260902165040 | 74 | 0.0 | 2.0 | 0.00 | 0.09 | 0.00 | 72 | 1020.0 | |
| 20260902164020 | 73 | 0.0 | 1.0 | 0.00 | 0.18 | 0.00 | 72 | 1020.3 | |
| 20260902163018 | 73 | 0.0 | 1.0 | 0.00 | 0.32 | 0.00 | 73 | 1020.5 | |
| 20260902162038 | 71 | 0.0 | 1.0 | 0.00 | 0.32 | 0.00 | 76 | 1020.5 | |
| 20260902161019 | 71 | 0.0 | 2.0 | 0.00 | 0.32 | 0.00 | 76 | 1020.5 | |
| 20260902160017 | 71 | 0.0 | 3.0 | 0.00 | 0.32 | 0.00 | 76 | 1020.6 | |
| 20260902155017 | 71 | 0.0 | 0.0 | 0.00 | 0.32 | 0.00 | 78 | 1020.7 | |
| 20260902154018 | 70 | 45 | 1.0 | 3.0 | 0.00 | 0.32 | 0.00 | 79 | 1020.8 |
| 20260902153027 | 70 | 0.0 | 1.0 | 0.00 | 0.32 | 0.00 | 81 | 1020.8 | |
| 20260902152025 | 69 | 45 | 1.0 | 3.0 | 0.00 | 0.32 | 0.00 | 83 | 1021.0 |
| 20260902151040 | 69 | 0.0 | 0.0 | 0.00 | 0.32 | 0.00 | 89 | 1021.2 | |
| 20260902150018 | 68 | 23 | 1.0 | 3.0 | 0.00 | 0.32 | 0.00 | 91 | 1021.3 |
| 20260902145040 | 67 | 0.0 | 1.0 | 0.00 | 0.32 | 0.00 | 98 | 1021.0 | |
| 20260902144018 | 66 | 0.0 | 0.0 | 0.00 | 0.32 | 0.00 | 99 | 1020.9 | |
| 20260902143057 | 65 | 0.0 | 1.0 | 0.00 | 0.32 | 0.00 | 99 | 1021.2 | |
| 20260902142022 | 65 | 0.0 | 0.0 | 0.00 | 0.32 | 0.00 | 99 | 1021.2 | |
| 20260902141017 | 65 | 0.0 | 2.0 | 0.00 | 0.33 | 0.00 | 99 | 1021.2 | |
| 20260902140039 | 65 | 0.0 | 1.0 | 0.00 | 0.33 | 0.00 | 99 | 1021.0 | |
| 20260902135017 | 64 | 0.0 | 1.0 | 0.00 | 0.33 | 0.00 | 99 | 1020.9 | |
| 20260902134017 | 64 | 0.0 | 1.0 | 0.00 | 0.33 | 0.00 | 99 | 1020.8 | |
| 20260902133027 | 64 | 0.0 | 1.0 | 0.00 | 0.33 | 0.00 | 99 | 1020.6 | |
| 20260902132026 | 63 | 0.0 | 1.0 | 0.00 | 0.33 | 0.00 | 99 | 1020.5 | |
| 20260902131047 | 63 | 0.0 | 1.0 | 0.00 | 0.34 | 0.00 | 99 | 1020.7 | |
| 20260902130040 | 63 | 0.0 | 1.0 | 0.00 | 0.44 | 0.00 | 99 | 1020.7 | |
| 20260902125020 | 63 | 0.0 | 0.0 | 0.00 | 0.44 | 0.00 | 99 | 1020.6 | |
| 20260902124037 | 62 | 0.0 | 0.0 | 0.00 | 0.45 | 0.00 | 99 | 1020.7 | |
| 20260902123017 | 62 | 0.0 | 1.0 | 0.00 | 0.48 | 0.00 | 99 | 1020.6 | |
| 20260902122017 | 62 | 0.0 | 1.0 | 0.00 | 0.59 | 0.00 | 99 | 1020.5 | |
| 20260902121020 | 62 | 0.0 | 0.0 | 0.00 | 0.60 | 0.00 | 99 | 1020.7 | |
| 20260902120017 | 62 | 0.0 | 0.0 | 0.00 | 0.61 | 0.00 | 99 | 1020.6 | |
| 20260902115017 | 62 | 0.0 | 1.0 | 0.00 | 0.63 | 0.00 | 99 | 1020.6 | |
| 20260902114017 | 62 | 0.0 | 1.0 | 0.00 | 0.66 | 0.00 | 99 | 1020.7 | |
| 20260902113022 | 62 | 0.0 | 0.0 | 0.00 | 0.71 | 0.00 | 99 | 1020.9 | |
| 20260902112018 | 62 | 0.0 | 0.0 | 0.00 | 0.77 | 0.00 | 99 | 1021.0 | |
| 20260902111018 | 61 | 0.0 | 1.0 | 0.00 | 0.82 | 0.00 | 99 | 1020.8 | |
| 20260902110018 | 61 | 0.0 | 0.0 | 0.00 | 0.95 | 0.00 | 99 | 1020.7 | |
| 20260902105018 | 61 | 0.0 | 0.0 | 0.00 | 0.97 | 0.00 | 99 | 1020.6 | |
| 20260902104039 | 61 | 0.0 | 0.0 | 0.00 | 0.98 | 0.00 | 99 | 1020.5 | |
| 20260902103020 | 61 | 0.0 | 0.0 | 0.00 | 0.99 | 0.00 | 99 | 1020.4 | |
| 20260902102017 | 61 | 0.0 | 0.0 | 0.00 | 0.99 | 0.00 | 99 | 1020.2 | |
| 20260902101057 | 61 | 0.0 | 0.0 | 0.00 | 0.99 | 0.00 | 99 | 1020.1 | |
| 20260902100021 | 61 | 0.0 | 0.0 | 0.00 | 0.99 | 0.00 | 99 | 1020.2 | |
| 20260902095025 | 61 | 0.0 | 0.0 | 0.00 | 0.99 | 0.00 | 99 | 1020.1 | |
| 20260902094019 | 61 | 0.0 | 1.0 | 0.00 | 0.99 | 0.00 | 99 | 1020.0 | |
| 20260902093021 | 61 | 0.0 | 0.0 | 0.00 | 0.99 | 0.00 | 99 | 1019.9 | |
| 20260902092026 | 61 | 0.0 | 0.0 | 0.00 | 1.00 | 0.00 | 99 | 1019.8 | |
| 20260902091016 | 61 | 0.0 | 0.0 | 0.00 | 1.01 | 0.00 | 99 | 1019.6 | |
| 20260902090041 | 61 | 0.0 | 0.0 | 0.00 | 1.01 | 0.00 | 99 | 1019.6 | |
| 20260902085021 | 61 | 0.0 | 0.0 | 0.00 | 1.02 | 0.00 | 99 | 1019.7 | |
| 20260902084017 | 61 | 0.0 | 0.0 | 0.00 | 1.03 | 0.00 | 99 | 1019.7 | |
| 20260902083017 | 61 | 0.0 | 0.0 | 0.00 | 1.05 | 0.00 | 99 | 1019.6 | |
| 20260902082019 | 61 | 0.0 | 0.0 | 0.00 | 1.05 | 0.00 | 99 | 1019.4 | |
| 20260902081016 | 61 | 0.0 | 1.0 | 0.00 | 1.05 | 0.00 | 99 | 1019.3 | |
| 20260902080037 | 61 | 0.0 | 0.0 | 0.00 | 1.05 | 0.00 | 99 | 1019.5 | |
| 20260902075017 | 61 | 0.0 | 1.0 | 0.00 | 1.05 | 0.00 | 99 | 1019.4 | |
| 20260902074018 | 61 | 0.0 | 1.0 | 0.00 | 1.05 | 0.00 | 99 | 1019.5 | |
| 20260902073016 | 61 | 0.0 | 0.0 | 0.00 | 1.05 | 0.00 | 99 | 1019.5 | |
| 20260902072021 | 61 | 0.0 | 0.0 | 0.00 | 1.05 | 0.00 | 99 | 1019.4 | |
| 20260902071036 | 61 | 0.0 | 1.0 | 0.00 | 1.05 | 0.00 | 99 | 1019.6 | |
| 20260902070017 | 61 | 0.0 | 2.0 | 0.00 | 1.05 | 0.00 | 99 | 1019.8 | |
| 20260902065016 | 61 | 0.0 | 2.0 | 0.00 | 1.05 | 0.00 | 99 | 1019.6 | |
| 20260902064016 | 61 | 0.0 | 1.0 | 0.00 | 1.05 | 0.00 | 99 | 1019.7 | |
| 20260902063016 | 61 | 0.0 | 0.0 | 0.00 | 1.05 | 0.00 | 99 | 1019.7 | |
| 20260902062016 | 61 | 0.0 | 1.0 | 0.00 | 1.05 | 0.00 | 99 | 1019.7 | |
| 20260902061016 | 62 | 0.0 | 1.0 | 0.00 | 1.05 | 0.00 | 99 | 1019.6 | |
| 20260902060036 | 62 | 0.0 | 0.0 | 0.00 | 1.05 | 0.00 | 99 | 1019.5 | |
| 20260902055016 | 62 | 0.0 | 0.0 | 0.00 | 1.05 | 0.00 | 99 | 1019.5 | |
| 20260902054058 | 62 | 0.0 | 0.0 | 0.00 | 1.05 | 0.00 | 99 | 1019.5 | |
| 20260902053016 | 62 | 0.0 | 0.0 | 0.00 | 1.05 | 0.00 | 99 | 1019.3 | |
| 20260902052016 | 62 | 0.0 | 0.0 | 0.00 | 1.05 | 0.00 | 99 | 1019.3 | |
| 20260902051016 | 62 | 0.0 | 0.0 | 0.00 | 1.05 | 0.00 | 99 | 1019.1 | |
| 20260902050016 | 62 | 0.0 | 0.0 | 0.00 | 1.05 | 0.00 | 99 | 1019.1 | |
| 20260902045017 | 62 | 0.0 | 0.0 | 0.00 | 1.05 | 0.00 | 99 | 1019.1 | |
| 20260902044016 | 62 | 0.0 | 0.0 | 0.00 | 1.05 | 0.00 | 99 | 1019.0 | |
| 20260902043037 | 61 | 0.0 | 0.0 | 0.00 | 1.05 | 0.00 | 99 | 1019.0 | |
| 20260902042017 | 62 | 0.0 | 1.0 | 0.00 | 1.05 | 0.00 | 99 | 1019.0 | |
| 20260902041036 | 62 | 0.0 | 0.0 | 0.00 | 1.05 | 0.00 | 99 | 1019.1 | |
| 20260902040016 | 61 | 0.0 | 1.0 | 0.00 | 1.05 | 1.05 | 99 | 1018.6 | |
| 20260902035038 | 62 | 0.0 | 1.0 | 0.00 | 1.05 | 1.05 | 99 | 1018.4 | |
| 20260902034041 | 62 | 0.0 | 0.0 | 0.00 | 1.05 | 1.05 | 99 | 1018.6 | |
| 20260902033017 | 62 | 0.0 | 0.0 | 0.00 | 1.05 | 1.05 | 99 | 1018.4 | |
| 20260902032020 | 62 | 0.0 | 0.0 | 0.00 | 1.05 | 1.05 | 99 | 1018.1 | |
| 20260902031017 | 62 | 0.0 | 2.0 | 0.00 | 1.05 | 1.05 | 99 | 1017.9 | |
| 20260902030017 | 62 | 0.0 | 1.0 | 0.02 | 1.05 | 1.05 | 99 | 1018.0 | |
| 20260902025016 | 62 | 0.0 | 1.0 | 0.02 | 1.05 | 1.05 | 99 | 1018.0 | |
| 20260902024017 | 62 | 0.0 | 0.0 | 0.02 | 1.05 | 1.05 | 99 | 1018.2 | |
| 20260902023059 | 62 | 0.0 | 0.0 | 0.02 | 1.05 | 1.05 | 99 | 1018.1 | |
| 20260902022017 | 62 | 0.0 | 0.0 | 0.02 | 1.05 | 1.05 | 99 | 1018.0 | |
| 20260902021016 | 62 | 0.0 | 0.0 | 0.02 | 1.05 | 1.05 | 99 | 1018.2 | |
| 20260902020017 | 62 | 0.0 | 0.0 | 0.00 | 1.03 | 1.03 | 99 | 1018.1 | |
| 20260902015042 | 62 | 0.0 | 0.0 | 0.00 | 1.03 | 1.03 | 99 | 1018.3 | |
| 20260902014019 | 62 | 0.0 | 1.0 | 0.00 | 1.03 | 1.03 | 99 | 1018.2 | |
| 20260902013016 | 62 | 0.0 | 2.0 | 0.00 | 1.03 | 1.03 | 99 | 1018.2 | |
| 20260902012036 | 62 | 0.0 | 0.0 | 0.00 | 1.03 | 1.03 | 99 | 1017.8 | |
| 20260902011016 | 62 | 0.0 | 1.0 | 0.00 | 1.03 | 1.03 | 99 | 1017.9 | |
| 20260902010017 | 62 | 0.0 | 0.0 | 0.00 | 1.03 | 1.03 | 99 | 1017.7 | |
| 20260902005017 | 62 | 0.0 | 0.0 | 0.00 | 1.03 | 1.03 | 99 | 1017.7 | |
| 20260902004040 | 62 | 0.0 | 0.0 | 0.00 | 1.03 | 1.03 | 99 | 1017.6 | |
| 20260902003017 | 62 | 0.0 | 0.0 | 0.00 | 1.03 | 1.03 | 99 | 1017.6 | |
| 20260902002016 | 62 | 0.0 | 0.0 | 0.00 | 1.03 | 1.03 | 99 | 1017.4 | |
| 20260902001036 | 62 | 0.0 | 0.0 | 0.00 | 1.03 | 1.03 | 99 | 1017.2 | |
| 20260902000016 | 62 | 0.0 | 0.0 | 0.00 | 1.03 | 1.03 | 99 | 1017.3 | |
| 20260901235036 | 62 | 0.0 | 0.0 | 0.00 | 1.03 | 1.03 | 99 | 1017.2 | |
| 20260901234016 | 62 | 0.0 | 0.0 | 0.00 | 1.03 | 1.03 | 99 | 1017.3 | |
| 20260901233017 | 62 | 0.0 | 0.0 | 0.00 | 1.03 | 1.03 | 99 | 1017.4 | |
| 20260901232021 | 62 | 0.0 | 0.0 | 0.00 | 1.03 | 1.03 | 99 | 1017.4 | |
| 20260901231021 | 62 | 0.0 | 0.0 | 0.00 | 1.03 | 1.03 | 99 | 1017.4 | |
| 20260901230036 | 62 | 0.0 | 0.0 | 0.00 | 1.03 | 1.03 | 99 | 1017.3 | |
| 20260901225027 | 62 | 0.0 | 1.0 | 0.00 | 1.03 | 1.03 | 99 | 1017.1 | |
| 20260901224017 | 62 | 0.0 | 0.0 | 0.00 | 1.03 | 1.03 | 99 | 1017.1 | |
| 20260901223016 | 62 | 0.0 | 0.0 | 0.01 | 1.03 | 1.03 | 99 | 1017.0 | |
| 20260901222057 | 62 | 0.0 | 1.0 | 0.01 | 1.03 | 1.03 | 98 | 1016.9 | |
| 20260901221019 | 62 | 0.0 | 1.0 | 0.01 | 1.03 | 1.03 | 99 | 1016.9 | |
| 20260901220020 | 62 | 0.0 | 1.0 | 0.01 | 1.03 | 1.03 | 99 | 1016.9 | |
| 20260901215041 | 62 | 0.0 | 0.0 | 0.01 | 1.03 | 1.03 | 99 | 1017.0 | |
| 20260901214017 | 62 | 0.0 | 0.0 | 0.02 | 1.03 | 1.03 | 98 | 1016.8 | |
| 20260901213016 | 62 | 0.0 | 2.0 | 0.01 | 1.02 | 1.02 | 98 | 1016.7 | |
| 20260901212020 | 62 | 0.0 | 1.0 | 0.01 | 1.02 | 1.02 | 98 | 1016.7 | |
| 20260901211016 | 62 | 0.0 | 2.0 | 0.01 | 1.02 | 1.02 | 98 | 1016.6 | |
| 20260901210016 | 62 | 0.0 | 3.0 | 0.01 | 1.02 | 1.02 | 98 | 1016.6 | |
| 20260901205016 | 62 | 45 | 1.0 | 3.0 | 0.01 | 1.02 | 1.02 | 98 | 1016.6 |
| 20260901204016 | 62 | 68 | 1.0 | 7.0 | 0.00 | 1.01 | 1.01 | 98 | 1016.4 |
| 20260901203016 | 63 | 45 | 3.0 | 8.0 | 0.00 | 1.01 | 1.01 | 98 | 1016.3 |
| 20260901202018 | 63 | 45 | 2.0 | 8.0 | 0.01 | 1.01 | 1.01 | 98 | 1016.2 |
| 20260901201018 | 64 | 45 | 1.0 | 6.0 | 0.01 | 1.01 | 1.01 | 98 | 1016.0 |
| 20260901200018 | 64 | 135 | 1.0 | 4.0 | 0.01 | 1.01 | 1.01 | 98 | 1015.8 |
| 20260901195026 | 64 | 45 | 2.0 | 6.0 | 0.01 | 1.01 | 1.01 | 98 | 1015.8 |
| 20260901194019 | 66 | 135 | 1.0 | 3.0 | 0.01 | 1.01 | 1.01 | 98 | 1015.6 |
| 20260901193018 | 66 | 45 | 1.0 | 4.0 | 0.01 | 1.01 | 1.01 | 98 | 1015.5 |
| 20260901192041 | 66 | 45 | 1.0 | 2.0 | 0.01 | 1.00 | 1.00 | 98 | 1015.4 |
| 20260901191018 | 66 | 90 | 1.0 | 4.0 | 0.01 | 1.00 | 1.00 | 98 | 1015.3 |
| 20260901190017 | 67 | 0.0 | 2.0 | 0.01 | 1.00 | 1.00 | 98 | 1015.3 | |
| 20260901185022 | 67 | 45 | 1.0 | 3.0 | 0.01 | 1.00 | 1.00 | 98 | 1015.3 |
| 20260901184018 | 67 | 68 | 1.0 | 3.0 | 0.01 | 1.00 | 1.00 | 99 | 1015.3 |
| 20260901183041 | 67 | 0.0 | 1.0 | 0.02 | 1.00 | 1.00 | 99 | 1015.3 | |
| 20260901182017 | 68 | 0.0 | 1.0 | 0.01 | 0.99 | 0.99 | 99 | 1015.3 | |
| 20260901181018 | 67 | 0.0 | 1.0 | 0.01 | 0.99 | 0.99 | 98 | 1015.3 | |
| 20260901180017 | 67 | 0.0 | 1.0 | 0.02 | 0.99 | 0.99 | 98 | 1015.2 | |
| 20260901175042 | 67 | 0.0 | 1.0 | 0.03 | 0.99 | 0.99 | 98 | 1015.1 | |
| 20260901174038 | 67 | 0.0 | 1.0 | 0.12 | 0.99 | 0.99 | 98 | 1015.0 | |
| 20260901173017 | 67 | 0.0 | 1.0 | 0.25 | 0.98 | 0.98 | 98 | 1015.1 | |
| 20260901172018 | 67 | 0.0 | 1.0 | 0.25 | 0.98 | 0.98 | 98 | 1015.0 | |
| 20260901171018 | 67 | 0.0 | 0.0 | 0.25 | 0.98 | 0.98 | 98 | 1014.9 | |
| 20260901170037 | 67 | 0.0 | 1.0 | 0.24 | 0.97 | 0.97 | 98 | 1015.0 |